Regional Weather Roundup
Issued by NWS Newport/Morehead, NC

Current Version | Previous Version | Text Only | Print | Product List | Glossary On
Versions: 1 2 3 4 5 6 7 8 9 10 11 12 13 14 15 16 17 18 19 20 21 22 23 24 25 26 27 28 29 30 31 32 33 34 35 36 37 38 39 40 41 42 43 44 45 46 47 48 49 50
000 ASUS42 KMHX 031925 RWRMHX WEATHER ROUNDUP FOR EASTERN NORTH CAROLINA NATIONAL WEATHER SERVICE NEWPORT/MOREHEAD CITY NC 300 PM EDT FRI JUL 03 2015 NOTE: "FAIR" INDICATES FEW OR NO CLOUDS BELOW 12,000 FEET WITH NO SIGNIFICANT WEATHER AND/OR OBSTRUCTIONS TO VISIBILITY NCZ015>017-031-032-045>047-102-103-032000- NORTH COAST CITY SKY/WX TMP DP RH WIND PRES REMARKS EDENTON N/A 83 72 68 E7 29.94F ELIZABETH CITY SUNNY 83 70 64 E8 29.95F KITTY HAWK CLEAR 84 70 63 E7 29.95F MANTEO MOSUNNY 80 71 74 E9 29.96S $$ NCZ045>047-081-094-103-104-032000- CENTRAL COAST CITY SKY/WX TMP DP RH WIND PRES REMARKS FRISCO MOSUNNY 81 70 69 SW7 29.97F SWANQUARTER N/A 86 N/A N/A S3G12 29.91S $$ NCZ095-097-098-100-101-032000- SOUTHERN COAST CITY SKY/WX TMP DP RH WIND PRES REMARKS BEAUFORT PTSUNNY 83 75 77 SW18 29.96F CEDAR ISLAND N/A 88 N/A N/A SE9G16 29.97F JACKSONVILLE NOT AVBL PINEY ISLAND PTCLDY N/A N/A N/A S9 29.94F WILMINGTON TSTM 81 73 76 S8G23 29.94F $$ NCZ011>013-027>030-043-044-078>080-089-090>093-098-032000- COASTAL PLAIN CITY SKY/WX TMP DP RH WIND PRES REMARKS AHOSKIE SUNNY 83 69 64 S6 29.93F CLINTON LGT RAIN 79 73 83 SW5 29.95F ELIZABETHTOWN LGT RAIN 78 73 86 SW6 29.95F GOLDSBORO CLOUDY 80 71 75 VRB5 29.93S GREENVILLE PTSUNNY 82 72 69 SW7 29.96S HAVELOCK PTSUNNY 86 73 65 SW12G20 29.95F KENANSVILLE PTSUNNY 81 70 69 SW7 29.96F KINSTON PTSUNNY 84 72 65 SW9 29.95F NEW BERN TSTM 83 73 72 SW12G17 29.94F RICHLANDS MOSUNNY 88 70 55 SW7G17 29.94F ROCKY MOUNT PTSUNNY 82 71 69 S10 29.93F WASHINGTON SUNNY 83 71 67 SW7 29.94F WHITEVILLE PTSUNNY 82 75 78 W3 29.94F $$ AMZ130-135-150-152-154-156-158-170-250-252-270-ANZ085-086-088-633-658-670-032000- MARINE OBSERVATIONS STATION/POSITION TIME TEMP WIND PRES WAVE SWELL AIR SEA DIR/SP/G HT/PER HT/PER (UTC) (F) (DEG/KT/KT) (MB) (FT/S) (FT/S) CHESAPEAKE LIGHT 1900 74 90/ 6/ 6 1015.7 64 E VA BEACH 1850 76 78 70/ 4/ 6 1014.7 4/ 7 3/ 7 DUCK 1900 78 76 70/ 8/ 9 1013.7 2 E DUCK 1811 77 N/A 2/ 8 OREGON INLET 1900 77 73 60/ 7/ 9 1014.4 13E OREGON INLT 1900 74 N/A 4/ 7 HATTERAS CG 1900 80 78 170/ 6/ 8 1014.5 DIAMOND BUOY 1850 79 81 240/ 12/ 14 1015.0 4/ 7 3/ 7 CAPE LOOKOUT 1900 81 210/ 12/ 15 1014.4 BEAUFORT LAB 1900 81 81 220/ 9/ 12 1013.8 30 SE NEW RVR IN 1808 80 80 240/ 17/ 21 1015.5 27 SE WRIGHTSVLE 1900 80 240/ 17/ 21 N/A 5 SE WRIGHTSVLE 1808 79 80 220/ 14/ 17 1014.7 225 S CAPE HAT 1850 80 80 250/ 12/ 14 1019.0 6/ 7 5/ 7 41 SE CHARLESTON 1850 81 82 220/ 17/ 21 1015.4 5/ 5 2/ 8 $$

USA.gov is the U.S. government's official web portal to all federal, state and local government web resources and services.